Weather History for Lawrenceville, IL

Change the Weather History Date:

Monday, December 17, 2012

  Actual Average Record
Temperature  
Mean Temperature 41 °F 34 °F  
Max Temperature 46 °F 41 °F 64 °F (2006)
Min Temperature 36 °F 26 °F 0 °F (2000)
Degree Days  
Heating Degree Days 24 31  
Month to date heating degree days 325 484  
Since 1 July heating degree days 1372 1342  
Cooling Degree Days 0 0  
Month to date cooling degree days 1 0  
Year to date cooling degree days 1708 1387  
Moisture  
Dew Point 39 °F    
Average Humidity 88    
Maximum Humidity 93    
Minimum Humidity 82    
Precipitation  
Precipitation 0.13 in 0.08 in 1.15 in (2001)
Month to date precipitation 0.76 1.81  
Year to date precipitation 28.92 42.30  
Sea Level Pressure  
Sea Level Pressure 29.69 in    
Wind  
Wind Speed 8 mph (North)    
Max Wind Speed 17 mph    
Max Gust Speed 20 mph    
Visibility 3 miles    
Events Fog , Rain , Thunderstorm    
T = Trace of Precipitation, MM = Missing Value Source: NWS Daily Summary

Daily Weather History Graph

Daily Weather History Graph

Search for Another Location

Airport:

Trip Planner

Search our weather history database for the weather conditions in past years. The results will help you decide how hot, cold, wet, or windy it might be!

Date:

Astronomy

Dec. 17, 2012 Rise Set
Actual Time 7:03 AM CST 4:30 PM CST
Civil Twilight 6:33 AM CST 5:00 PM CST
Nautical Twilight 5:59 AM CST 5:33 PM CST
Astronomical Twilight 5:27 AM CST 6:06 PM CST
Moon 10:13 AM CST (12/17) 9:49 PM CST (12/17)
Length of Visible Light 10h 27m
Length of Day
9h 27m
Waxing Crescent, 25% of the Moon is Illuminated
Dec 17
Waxing Crescent
Dec 19
First Quarter
Dec 28
Full
Jan 4
Last Quarter
Jan 11
New

Hourly Weather History & Observations

Time (CST) Temp. Windchill Dew Point Humidity Pressure Visibility Wind Dir Wind Speed Gust Speed Precip Events Conditions
12:20 AM 37.4 °F 33.8 °F 35.6 °F 93% 29.75 in 0.2 mi NW 4.6 mph - N/A Fog Fog
12:33 AM 37.4 °F 32.8 °F 35.6 °F 93% 29.75 in 0.2 mi NW 5.8 mph - N/A Fog Fog
12:40 AM 35.6 °F 31.7 °F 35.6 °F 100% 29.75 in 0.2 mi North 4.6 mph - N/A Fog Fog
12:53 AM 37.0 °F 33.3 °F 36.0 °F 96% 29.75 in 0.2 mi North 4.6 mph - N/A Fog Fog
1:34 AM 37.4 °F - 37.4 °F 100% 29.74 in 1.5 mi Calm Calm - N/A   Clear
1:53 AM 39.0 °F 36.8 °F 37.0 °F 93% 29.74 in 1.8 mi NNE 3.5 mph - N/A   Clear
2:53 AM 39.0 °F - 37.0 °F 93% 29.75 in 1.0 mi Calm Calm - N/A   Scattered Clouds
3:02 AM 39.2 °F 37.0 °F 37.4 °F 93% 29.74 in 1.2 mi NNE 3.5 mph - N/A   Mostly Cloudy
3:30 AM 41.0 °F 37.1 °F 39.2 °F 93% 29.74 in 2.5 mi NNE 5.8 mph - N/A   Overcast
3:53 AM 41.0 °F 37.1 °F 39.0 °F 93% 29.73 in 2.5 mi NNE 5.8 mph - N/A   Overcast
4:04 AM 41.0 °F 37.1 °F 39.2 °F 93% 29.73 in 3.0 mi NE 5.8 mph - N/A   Overcast
4:27 AM 41.0 °F 37.1 °F 39.2 °F 93% 29.73 in 2.5 mi North 5.8 mph - N/A   Overcast
4:39 AM 42.8 °F 39.3 °F 39.2 °F 87% 29.73 in 3.0 mi North 5.8 mph - N/A   Overcast
4:53 AM 42.1 °F 37.1 °F 39.0 °F 89% 29.73 in 3.0 mi NNE 8.1 mph - N/A   Overcast
5:53 AM 42.1 °F 36.6 °F 39.0 °F 89% 29.71 in 2.5 mi NE 9.2 mph - N/A   Overcast
6:53 AM 42.1 °F 37.1 °F 39.0 °F 89% 29.70 in 2.5 mi NE 8.1 mph - N/A   Overcast
7:17 AM 42.8 °F 38.6 °F 39.2 °F 87% 29.70 in 2.5 mi NNE 6.9 mph - N/A   Overcast
7:53 AM 43.0 °F 41.3 °F 39.9 °F 89% 29.70 in 1.5 mi NE 3.5 mph - N/A   Overcast
8:53 AM 43.0 °F 39.5 °F 39.9 °F 89% 29.70 in 1.8 mi NNE 5.8 mph - N/A   Overcast
9:20 AM 44.6 °F 40.7 °F 39.2 °F 81% 29.70 in 2.0 mi North 6.9 mph - N/A   Overcast
9:49 AM 44.6 °F 40.7 °F 41.0 °F 87% 29.69 in 2.0 mi NNE 6.9 mph - N/A   Overcast
9:53 AM 44.1 °F 39.5 °F 41.0 °F 89% 29.70 in 2.0 mi NNE 8.1 mph - N/A   Overcast
10:27 AM 44.6 °F 38.1 °F 41.0 °F 87% 29.65 in 2.0 mi NNE 13.8 mph - 0.00 in Rain Light Rain
10:53 AM 46.0 °F 44.8 °F 42.1 °F 86% 29.66 in 2.0 mi ENE 3.5 mph - 0.00 in   Mostly Cloudy
11:07 AM 46.4 °F 42.9 °F 42.8 °F 87% 29.65 in 2.5 mi NE 6.9 mph - N/A   Mostly Cloudy
11:34 AM 44.6 °F 40.7 °F 42.8 °F 93% 29.65 in 1.8 mi NNW 6.9 mph - 0.01 in Rain , Thunderstorm Light Thunderstorms and Rain
11:53 AM 45.0 °F 39.3 °F 42.1 °F 90% 29.64 in 1.5 mi NNW 11.5 mph - 0.02 in Rain Light Rain
12:01 PM 44.6 °F 38.8 °F 42.8 °F 93% 29.63 in 1.5 mi North 11.5 mph - 0.00 in Thunderstorm Overcast
12:16 PM 44.6 °F 41.4 °F 41.0 °F 87% 29.63 in 1.5 mi NNE 5.8 mph - 0.00 in   Overcast
12:34 PM 44.6 °F 40.7 °F 41.0 °F 87% 29.62 in 2.0 mi North 6.9 mph - 0.00 in Rain Light Rain
12:53 PM 45.0 °F 40.6 °F 41.0 °F 86% 29.62 in 2.0 mi North 8.1 mph - 0.00 in Rain , Thunderstorm Light Rain
1:04 PM 44.6 °F 38.1 °F 41.0 °F 87% 29.64 in 3.0 mi WNW 13.8 mph - 0.00 in Rain Light Rain
1:15 PM 44.6 °F 40.2 °F 41.0 °F 87% 29.61 in 2.0 mi North 8.1 mph - 0.01 in Rain Light Rain
1:23 PM 44.6 °F 41.4 °F 41.0 °F 87% 29.62 in 1.8 mi North 5.8 mph - 0.01 in Rain Light Rain
1:30 PM 44.6 °F 40.7 °F 41.0 °F 87% 29.62 in 2.0 mi North 6.9 mph - 0.02 in Rain Light Rain
1:37 PM 44.6 °F 40.7 °F 41.0 °F 87% 29.62 in 2.0 mi North 6.9 mph - 0.02 in Rain Light Rain
1:53 PM 44.1 °F 42.5 °F 41.0 °F 89% 29.62 in 1.5 mi North 3.5 mph - 0.04 in Rain Rain
2:09 PM 44.6 °F 41.4 °F 42.8 °F 93% 29.61 in 2.5 mi North 5.8 mph - 0.01 in Rain Light Rain
2:26 PM 44.6 °F 40.7 °F 42.8 °F 93% 29.61 in 2.5 mi North 6.9 mph - 0.02 in Rain Light Rain
2:33 PM 44.6 °F 40.7 °F 42.8 °F 93% 29.61 in 2.5 mi NNW 6.9 mph - 0.03 in Rain Rain
2:49 PM 44.6 °F 43.1 °F 42.8 °F 93% 29.62 in 2.5 mi NNW 3.5 mph - 0.04 in Rain Light Rain
2:53 PM 45.0 °F 42.6 °F 42.1 °F 90% 29.62 in 2.5 mi NW 4.6 mph - 0.04 in Rain Light Rain
3:02 PM 44.6 °F 42.2 °F 42.8 °F 93% 29.62 in 3.0 mi WNW 4.6 mph - 0.00 in Rain Light Rain
3:17 PM 44.6 °F 42.2 °F 42.8 °F 93% 29.63 in 2.5 mi West 4.6 mph - 0.00 in   Overcast
3:31 PM 44.6 °F 40.2 °F 42.8 °F 93% 29.63 in 2.0 mi NW 8.1 mph - 0.00 in   Overcast
3:53 PM 44.1 °F 40.1 °F 42.1 °F 93% 29.64 in 2.5 mi NW 6.9 mph - 0.00 in   Overcast
6:53 PM 42.1 °F 36.1 °F 37.9 °F 85% 29.71 in 8.0 mi WNW 10.4 mph - N/A   Overcast
7:27 PM 41.0 °F 34.7 °F 37.4 °F 87% 29.70 in 6.0 mi NW 10.4 mph - N/A   Overcast
7:53 PM 41.0 °F 35.2 °F 37.0 °F 86% 29.72 in 5.0 mi WNW 9.2 mph - N/A   Overcast
8:26 PM 39.2 °F 32.5 °F 37.4 °F 93% 29.72 in 4.0 mi WNW 10.4 mph - 0.00 in Rain Light Rain
8:53 PM 39.9 °F 32.5 °F 36.0 °F 86% 29.73 in 4.0 mi WNW 12.7 mph - 0.01 in Rain Light Rain
9:25 PM 39.2 °F 33.0 °F 35.6 °F 87% 29.73 in 4.0 mi NW 9.2 mph - 0.00 in Rain Light Rain
9:53 PM 39.0 °F 31.0 °F 35.1 °F 86% 29.75 in 5.0 mi WNW 13.8 mph - 0.01 in Rain Light Rain
10:09 PM 37.4 °F 29.3 °F 35.6 °F 93% 29.75 in 5.0 mi NW 12.7 mph - 0.01 in Rain Light Rain
10:48 PM 37.4 °F 30.8 °F 35.6 °F 93% 29.76 in 6.0 mi NW 9.2 mph - 0.01 in   Overcast
10:53 PM 37.9 °F 30.5 °F 35.1 °F 89% 29.77 in 6.0 mi NW 11.5 mph - 0.01 in   Overcast
11:00 PM 37.4 °F 30.8 °F 35.6 °F 93% 29.76 in 6.0 mi NW 9.2 mph - N/A   Overcast
11:53 PM 37.9 °F 30.9 °F 35.1 °F 89% 29.78 in 7.0 mi WNW 10.4 mph - N/A   Overcast